sat.trackr.live / text

‹ back to catalog

STARLINK-37227

NORAD 68558 · 2026-070S

PAYLOAD ACTIVE UNKNOWN

§ Identity

Operator
Country
US
Launch date
2026-04-02
Launch site
AFETR
Launch vehicle
Mass (kg)
RCS (m²)

Purposes: comms

External: N2YO · Heavens-Above · Gunter

§ Orbital elements

Epoch: 2026-05-25T04:00:03.998880Z

Period
93.85 min
Inclination
53.1585°
Eccentricity
0.0001076
Mean motion
15.34385053 rev/d
Perigee alt
462.0 km
Apogee alt
463.5 km
Semi-major
6,840.9 km
B*
2.8348e-4
RAAN
6.7630°
Arg perigee
98.4988°
Mean anomaly
205.8939°
Rev number
601

§ Raw data

STARLINK-372271 68558U 26070S   26145.16671295  .00009209  00000+0  28348-3 0  99992 68558  53.1585   6.7630 0001076  98.4988 205.8939 15.34385053  6013

JSON: /api/v1/satellites/68558 · /tle

For live sub-satellite position, see the globe view (requires WebGL).

§ Visibility from observer

Set your observer location to see the next 7 days of passes ≥ 10°. The values pass through the URL so the page stays shareable.

No JS? Fill the form by hand. The geolocation button needs JavaScript.